EHI
0 0 0 0 0 0 0 0 0 3 9 14 16 14 13 14 17 20 26 35 49 59 60 57 56 53 51 52 52 51 53 54 55 57 59 61 64 66 67 65 62 62 60 56
0 0 0 0 0 0 0 0 1 5 15 24 25 20 16 17 20 24 30 36 47 57 61 61 59 55 52 52 53 55 56 55 55 58 61 63 63 65 67 67 66 64 59 54
0 0 0 1 1 0 0 0 4 12 26 38 40 34 28 27 30 35 38 41 48 56 61 61 60 56 52 51 53 56 55 53 53 55 58 59 57 59 61 62 64 64 58 51
0 0 0 1 1 0 0 1 9 23 36 47 50 45 40 38 40 40 39 39 43 47 51 52 51 50 48 47 48 48 47 47 48 50 52 51 50 51 52 52 54 55 52 47
0 0 0 1 1 0 0 3 14 30 40 43 43 41 39 39 38 34 31 31 32 34 37 39 39 38 38 38 38 37 37 39 40 41 42 42 42 42 43 43 44 43 40 38
0 0 0 1 1 1 2 8 21 33 36 35 33 33 34 31 27 24 23 25 26 27 28 30 29 28 27 26 26 25 25 27 28 29 29 30 31 32 32 33 33 32 29 28
0 0 1 2 4 6 9 18 28 31 32 34 37 35 32 26 21 18 18 20 21 21 21 21 20 19 18 17 16 16 15 15 15 15 15 16 18 19 19 19 20 19 19 20
4 5 7 8 8 9 13 22 28 29 31 37 39 34 27 23 19 16 14 13 13 12 12 11 10 10 10 10 9 8 7 6 6 5 4 6 7 7 8 8 8 9 11 13
11 14 18 16 11 7 9 17 25 30 35 37 32 25 21 18 15 12 10 8 6 5 4 4 3 3 3 3 3 3 2 2 1 0 0 1 1 2 3 4 3 4 6 7
13 15 18 16 10 5 7 15 25 33 35 30 22 17 16 13 10 6 4 3 2 2 2 1 0 0 0 0 0 0 0 0 0 0 0 0 0 1 2 2 2 3 3 3
6 8 9 9 8 9 14 20 25 29 27 20 13 11 11 9 6 4 2 2 1 1 1 0 0 1 1 1 0 0 0 0 0 0 0 0 0 0 1 1 1 1 1 1
1 2 4 6 9 14 19 21 21 20 17 11 8 8 8 7 5 3 2 2 2 1 1 0 0 0 0 0 0 0 0 0 0 0 0 0 0 0 0 0 0 0 0 0
1 2 4 7 11 15 17 15 14 11 8 7 6 6 6 5 4 1 0 1 1 0 0 0 0 0 0 0 0 0 0 0 0 0 0 0 0 0 0 0 0 0 0 0
3 3 4 6 9 11 10 8 7 5 4 4 5 4 3 3 2 1 0 0 0 0 0 0 0 0 0 0 0 0 0 0 0 0 0 0 0 0 0 0 0 0 0 0
1 2 3 6 7 6 6 4 2 1 1 1 1 1 1 1 1 0 0 0 0 0 0 0 0 0 0 0 0 0 0 0 0 0 0 0 0 0 0 0 0 0 0 0
1 2 3 5 6 5 3 2 0 0 0 0 0 0 0 0 0 0 0 0 0 0 0 0 0 0 0 0 0 0 0 0 0 0 0 0 0 0 0 0 0 0 0 0
2 3 3 3 4 3 1 0 0 0 0 0 0 0 0 0 0 0 0 0 0 0 0 0 0 0 0 0 0 0 0 0 0 0 0 0 0 0 0 0 0 0 0 0
2 3 2 2 2 2 1 0 0 0 0 0 0 0 0 0 0 0 0 0 0 0 0 0 0 0 0 0 0 0 0 0 0 0 0 0 0 0 0 0 0 0 0 0
2 2 2 2 2 1 0 0 0 0 0 0 0 0 0 0 0 0 0 0 0 0 0 0 0 0 0 0 0 0 0 0 0 0 0 0 0 0 0 0 0 0 0 0
2 2 2 2 1 0 0 0 0 0 0 0 0 0 0 0 0 0 0 0 0 0 0 0 0 0 0 0 0 0 0 0 0 0 0 0 0 0 0 0 0 0 0 0
1 1 1 1 0 0 0 0 0 0 0 0 0 0 0 0 0 0 0 0 0 0 0 0 0 0 0 0 0 0 0 0 0 0 0 0 0 0 0 0 0 0 0 0
0 0 0 0 0 0 0 0 0 0 0 0 0 0 0 0 0 0 0 0 0 0 0 0 0 0 0 0 0 0 0 0 0 0 0 0 0 0 0 0 0 0 0 0
0 0 0 0 0 0 0 0 0 0 0 0 0 0 0 0 0 0 0 0 0 0 0 0 0 0 0 0 0 0 0 0 0 0 0 0 0 0 0 0 0 0 0 0
0 0 0 0 0 0 0 0 0 0 0 0 0 0 0 0 0 0 0 0 0 0 0 0 0 0 0 0 0 0 0 0 0 0 0 0 0 0 0 0 0 0 0 0
0 0 0 0 0 0 0 0 0 0 0 0 0 0 0 0 0 0 0 0 0 0 0 0 0 0 0 0 0 0 0 0 0 0 0 0 0 0 0 0 0 0 0 0
0 0 0 0 0 0 0 0 0 0 0 1 0 0 0 0 0 0 0 0 0 0 0 0 0 0 0 0 0 0 0 0 0 0 0 0 0 0 0 0 0 0 0 0
0 0 0 0 0 0 0 0 0 0 0 1 0 0 0 0 0 0 0 0 0 0 0 0 0 0 0 0 0 0 0 0 0 0 0 0 0 0 0 0 0 0 0 0
Wind_Speed
14 9 10 12 13 12 11 12 10 5 2 6 6 7 5 6 7 7 8 7 8 8 6 5 6 6 6 7 7 7 7 7 7 7 7 7 7 7 7 7 9 8 7 7
13 12 11 12 12 10 12 11 9 5 2 8 9 7 7 6 7 8 7 7 7 7 7 6 5 5 5 5 5 5 6 5 5 4 4 4 4 4 5 5 6 6 7 8
12 11 11 13 11 11 11 9 5 2 7 11 10 8 7 7 9 9 9 8 8 7 7 6 5 5 4 4 4 4 3 2 2 3 3 2 2 1 2 3 3 3 4 5
11 9 13 8 5 5 5 3 2 7 11 13 13 11 10 9 11 11 10 10 10 10 10 10 9 8 7 7 7 7 6 6 5 5 4 3 3 3 2 1 1 2 3 4
10 11 11 5 3 4 4 2 4 9 11 15 16 14 11 11 12 12 12 11 11 11 12 11 11 10 10 10 9 9 9 8 7 6 5 5 4 4 3 2 2 3 3 3
11 10 8 2 0 3 2 1 6 10 11 14 14 9 9 11 13 13 13 12 12 12 13 12 11 10 12 11 11 10 9 8 7 7 6 6 5 5 4 3 3 3 3 3
13 10 2 4 3 0 2 2 7 8 9 10 8 10 14 14 14 13 13 13 13 13 12 11 10 11 12 11 10 9 8 8 7 6 5 5 5 4 4 4 4 4 4 3
9 8 2 5 6 3 2 3 6 8 11 13 17 19 17 15 14 13 13 13 13 11 11 9 9 10 10 9 8 7 7 7 7 6 6 5 4 3 3 3 4 4 4 4
2 3 5 6 5 3 3 4 7 11 16 18 19 18 17 15 13 13 12 11 11 11 10 9 9 9 9 8 6 6 6 5 4 4 3 3 3 3 3 3 3 4 4 5
3 5 3 3 3 1 3 7 9 13 16 17 18 17 16 14 12 12 11 10 10 10 10 9 8 7 7 6 5 5 4 3 2 2 2 2 2 3 3 4 4 4 5 5
4 2 2 3 3 3 8 10 12 14 14 16 17 17 16 13 12 10 10 10 9 8 8 8 7 6 6 5 4 4 3 3 3 3 3 2 2 3 3 1 1 2 3 4
2 2 3 4 4 8 10 11 13 15 15 14 15 16 15 13 11 10 10 8 8 8 7 7 6 5 5 5 5 5 5 6 6 5 4 4 4 4 3 3 3 4 4 4
4 5 6 8 11 11 12 13 15 17 16 16 14 14 14 12 10 9 9 8 7 7 6 5 4 5 5 5 5 5 5 5 5 6 6 6 5 5 5 4 3 4 5 4
7 8 9 11 11 12 15 19 19 18 17 16 14 13 12 11 10 9 8 7 6 5 4 4 4 5 5 4 5 5 6 5 5 5 6 6 6 6 6 7 6 4 2 3
8 9 12 13 14 16 17 17 17 16 16 14 13 12 11 10 9 7 6 5 5 4 4 5 5 5 5 5 6 7 7 5 5 6 7 6 6 6 7 8 7 7 6 5
11 12 14 15 16 16 16 16 15 14 13 13 11 10 9 8 7 6 5 5 4 4 4 5 5 5 5 6 7 6 5 5 5 6 7 6 6 7 7 7 7 7 7 7
11 13 14 14 15 15 15 14 13 12 12 11 9 9 8 7 6 5 4 4 4 4 4 4 4 4 4 5 6 7 7 6 7 6 6 6 7 7 7 7 7 7 8 7
13 14 14 14 14 14 14 13 12 11 9 8 8 7 6 5 4 3 2 2 3 4 4 4 4 4 4 5 5 6 7 7 6 6 6 6 7 7 7 7 8 9 8 8
15 16 15 15 13 12 11 10 9 8 7 6 6 5 3 2 1 1 1 1 2 3 3 4 3 3 4 6 6 5 6 7 6 6 6 6 6 7 7 7 8 8 8 8
15 14 14 13 12 10 8 7 7 6 5 4 4 3 2 1 1 2 2 3 4 4 4 4 3 4 5 6 8 6 6 6 7 7 6 7 7 7 7 8 8 8 8 8
12 11 10 9 8 7 7 5 4 4 3 2 1 1 1 1 1 1 2 4 5 4 2 3 4 5 6 7 8 6 5 6 6 6 6 6 7 7 7 7 8 8 8 8
8 7 7 6 6 5 4 2 2 2 2 2 1 2 1 1 1 4 5 5 5 4 3 4 5 6 8 9 6 5 6 7 6 6 6 6 6 7 7 8 8 8 8 8
5 4 4 3 3 2 1 1 1 2 2 1 1 1 2 2 2 3 4 4 5 4 4 6 6 7 10 6 5 6 6 7 6 6 6 6 6 6 7 8 7 7 8 8
3 3 2 2 2 1 1 1 1 1 1 1 1 2 2 2 4 6 7 7 7 5 6 5 4 6 7 3 5 5 6 6 6 6 6 6 6 6 6 7 7 7 8 9
1 1 1 2 2 2 1 1 1 1 1 2 3 4 4 5 5 6 6 7 5 3 5 4 0 4 3 4 5 5 5 5 6 6 6 6 6 7 7 7 7 8 8 8
1 1 1 2 2 3 3 2 2 2 2 3 3 4 5 5 6 5 4 5 5 3 2 2 2 1 3 4 5 5 5 4 5 5 6 6 7 7 7 8 10 8 8 8
2 1 0 1 1 2 3 3 3 3 3 3 3 4 4 4 4 4 5 4 3 2 2 2 3 4 4 4 4 4 4 5 5 6 6 6 7 7 8 9 8 8 9 10
Wind_Direction
253 236 206 221 235 238 240 248 262 256 206 143 132 119 120 120 115 117 125 131 130 131 135 143 147 153 160 166 172 177 178 187 196 204 206 210 211 213 213 213 217 214 216 217
247 244 238 240 239 235 241 249 258 252 135 120 119 125 127 128 118 105 101 106 111 118 132 141 144 149 150 154 162 161 165 172 175 179 186 205 215 216 216 218 223 218 217 221
246 248 253 249 240 246 243 244 257 250 124 127 122 115 110 107 104 99 91 83 80 85 86 93 104 109 113 119 121 117 116 115 128 147 156 182 208 200 225 229 230 239 237 235
243 242 246 252 296 283 274 234 124 109 122 120 114 103 88 84 90 90 87 83 77 77 76 73 74 75 75 75 72 72 69 66 55 55 58 50 50 52 30 349 281 263 262 261
243 235 242 254 286 296 267 255 113 118 118 120 120 110 91 85 88 90 87 82 77 76 76 71 70 73 74 68 66 64 58 52 47 43 47 52 40 26 23 4 331 303 286 281
241 238 239 225 84 308 274 202 96 113 130 139 147 129 112 99 92 89 86 83 81 78 76 72 68 71 74 69 63 58 55 55 54 48 42 45 40 26 11 350 333 320 315 308
236 236 220 56 83 246 225 129 100 114 126 144 137 111 120 114 104 99 94 90 85 81 75 71 69 72 74 69 66 61 58 54 47 42 42 47 37 19 359 344 326 305 300 299
232 232 198 45 48 26 72 95 105 116 118 113 108 114 119 116 113 109 102 96 92 87 81 74 71 72 73 66 61 60 56 51 45 34 27 32 18 0 340 324 313 307 304 305
354 70 75 87 109 177 173 125 116 115 116 121 123 124 121 119 114 108 103 99 97 95 89 78 71 72 73 66 57 52 51 44 36 26 15 7 348 334 319 317 327 339 345 344
95 77 48 49 70 82 102 97 105 115 123 125 125 124 122 119 114 110 107 104 98 92 89 82 74 72 74 68 57 46 38 25 0 343 350 357 335 333 343 355 358 358 348 339
93 125 142 67 52 81 89 96 100 109 117 122 123 124 121 117 115 111 103 97 94 93 91 86 80 71 64 56 40 25 9 351 338 345 1 340 323 322 327 342 339 300 318 321
94 128 115 111 102 90 93 99 107 109 108 113 118 120 118 114 111 107 103 100 97 93 89 85 79 72 60 45 29 9 359 354 343 343 352 341 333 329 306 286 247 237 247 274
71 88 94 88 85 89 96 103 105 106 108 108 107 109 109 108 106 105 104 100 95 92 91 88 85 77 63 43 24 7 345 336 332 337 337 332 330 328 325 316 276 258 261 274
72 88 91 91 93 97 101 102 102 102 102 102 102 102 103 101 97 92 89 86 84 80 78 72 69 67 51 36 13 351 331 333 335 334 329 325 328 328 327 330 331 334 302 256
73 87 94 96 94 95 99 104 105 104 104 103 101 100 100 99 97 93 87 82 77 70 61 61 61 56 34 15 2 339 325 332 343 331 317 321 332 333 335 335 335 338 341 341
84 90 96 98 98 100 102 103 102 102 102 100 99 101 105 106 100 91 79 69 63 55 49 52 53 42 25 10 349 327 325 341 332 320 319 334 343 343 338 335 336 338 336 343
95 97 99 100 99 98 96 95 96 96 96 96 98 99 98 93 87 77 67 60 60 67 68 68 53 27 14 12 346 331 332 327 318 323 344 352 349 342 335 334 336 336 335 347
88 90 93 96 97 96 93 92 92 92 94 94 94 89 85 81 75 68 62 59 70 77 69 62 37 4 15 29 354 330 322 326 337 346 349 355 345 334 336 340 339 337 334 336
90 90 89 89 90 89 88 89 88 87 84 82 80 81 84 88 88 75 68 72 92 92 74 58 25 1 13 29 352 314 319 333 344 351 348 351 344 346 346 344 342 340 336 334
90 90 90 90 90 92 93 92 92 89 83 81 82 85 75 57 53 64 72 69 61 62 66 48 20 17 11 18 342 320 337 347 352 354 352 353 352 350 348 346 341 337 337 337
89 92 94 93 91 88 85 86 89 89 86 73 51 29 21 354 353 76 124 108 80 51 53 82 46 23 15 348 315 326 356 5 1 360 355 354 350 348 346 343 340 340 341 339
86 85 84 84 82 80 79 77 79 68 64 52 7 357 349 345 93 91 83 90 92 36 25 59 47 31 0 332 326 358 15 14 5 358 358 356 353 349 347 345 343 344 343 340
79 74 74 73 71 66 62 36 44 55 47 34 7 4 10 34 54 101 101 80 83 57 54 55 36 12 346 332 355 18 23 18 6 359 1 359 355 351 348 346 345 346 343 339
66 55 32 3 353 335 339 353 11 31 16 20 47 56 61 87 84 85 95 89 67 64 73 72 26 356 333 346 16 22 24 18 9 1 1 359 354 352 350 348 348 346 344 342
59 358 338 334 324 340 11 337 357 97 73 67 69 74 68 74 89 91 94 97 98 92 109 113 13 325 343 29 34 23 26 26 7 354 359 358 356 354 352 349 349 348 347 348
314 308 25 351 354 337 334 354 3 35 46 59 61 67 80 87 95 99 103 104 99 86 82 109 99 28 35 41 38 25 22 21 9 4 3 1 358 355 354 354 355 356 353 355
280 289 226 333 13 6 1 7 20 40 51 69 81 84 91 96 99 103 104 108 113 102 86 75 63 55 48 42 37 30 28 22 16 10 7 8 5 0 1 2 4 5 2 1